Regional Weather Roundup
Issued by NWS

Home | Current Version | Previous Version | Text Only | Print | Product List | Glossary On
Versions: 1 2 3 4 5 6 7 8 9 10 11 12 13 14 15 16 17 18 19 20 21 22 23 24 25 26 27 28 29 30 31 32 33 34 35 36 37 38 39 40 41 42 43 44 45 46 47 48 49 50
000
ASUS43 KDTX 231201
RWRMI
MICHIGAN HOURLY REGIONAL WEATHER ROUNDUP
NATIONAL WEATHER SERVICE DETROIT/PONTIAC MI
800 AM EDT WED JUL 23 2014

NOTE: "FAIR" INDICATES FEW OR NO CLOUDS BELOW 12,000 FEET WITH NO
SIGNIFICANT WEATHER AND/OR OBSTRUCTION TO VISIBILITY.

MIZ047>049-052>055-059>063-066>070-074>076-081>083-231300-
SOUTHEAST LOWER MICHIGAN

CITY           SKY/WX    TMP DP  RH WIND       PRES   REMARKS
ADRIAN         CLOUDY    72  64  76 N6        30.00F
6HR MIN TEMP:  71; 6HR MAX TEMP:  78;

ALMA           PTSUNNY   63  55  77 N8        30.09S
6HR MIN TEMP:  62; 6HR MAX TEMP:  70;

ANN ARBOR      CLOUDY    67  59  75 N14       30.01R
BAD AXE        CLOUDY    62  56  80 N10G20    30.04S
6HR MIN TEMP:  61; 6HR MAX TEMP:  71;

CARO           CLOUDY    65  60  84 N10       30.04F
DETROIT CITY   CLOUDY    71  63  75 N15       29.98R
6HR MIN TEMP:  71; 6HR MAX TEMP:  80; 6HR PCP:  0.02;

DETROIT        CLOUDY    70  66  87 NW15      29.98R
6HR MIN TEMP:  70; 6HR MAX TEMP:  79; 6HR PCP: TRACE;

FLINT          CLOUDY    65  57  75 N12       30.05R
6HR MIN TEMP:  65; 6HR MAX TEMP:  79;

GROSSE ILE     CLOUDY    73  70  88 NW6       29.95R
HILLSDALE      CLOUDY    69  69  98 N9        30.01F
6HR MIN TEMP:  69; 6HR MAX TEMP:  78;

HOWELL         CLOUDY    63  58  84 NW12G18   30.04F

CITY           SKY/WX    TMP DP  RH WIND       PRES   REMARKS
JACKSON        CLOUDY    64  59  83 N10G20    30.04S
6HR MIN TEMP:  64; 6HR MAX TEMP:  77;

LAMBERTVILLE   CLOUDY    72  64  78 NW3       29.99F
LANSING        CLOUDY    63  56  78 N13       30.08R
6HR MIN TEMP:  63; 6HR MAX TEMP:  73; 6HR PCP: TRACE;

LAPEER         CLOUDY    64  57  79 N9G16     30.03S
MASON          CLOUDY    62  58  86 N7        30.06S
MONROE         CLOUDY    72  68  88 W8        29.97R
MT. CLEMENS    CLOUDY    66  64  94 N13       29.97F
6HR MIN TEMP:  66; 6HR MAX TEMP:  77; 6HR PCP: TRACE;

PONTIAC        CLOUDY    65  58  78 N13G22    30.02R
6HR MIN TEMP:  65; 6HR MAX TEMP:  79; 6HR PCP: TRACE;

PORT HOPE        N/A     64  57  78 VRB3      30.02S
6HR MIN TEMP:  63; 6HR MAX TEMP:  70;

PORT HURON     CLOUDY    64  61  88 N12G20    29.99S
TRI CITIES     CLOUDY    64  56  75 N9        30.08R
6HR MIN TEMP:  64; 6HR MAX TEMP:  74;

TROY           CLOUDY    67  61  80 N14       30.02R
SAGINAW HB     PTSUNNY   64  57  77 N8        30.05F
$$
MIZ043>046-050>051-056>058-064>065-071>073-077>080-231300-
SOUTHWEST LOWER MICHIGAN

CITY           SKY/WX    TMP DP  RH WIND       PRES   REMARKS
BATTLE CREEK   CLOUDY    64  57  78 N13       30.06S
6HR MIN TEMP:  64; 6HR MAX TEMP:  73; 6HR PCP:  0.02;

BENTON HARBOR  PTSUNNY   63  58  83 NE8G17    30.06S
6HR MIN TEMP:  63; 6HR MAX TEMP:  70; 6HR PCP: TRACE;

BIG RAPIDS     PTSUNNY   61  54  79 N6        30.11R
6HR MIN TEMP:  60; 6HR MAX TEMP:  63;

COLDWATER      CLOUDY    70  67  92 N13       30.02F
6HR MIN TEMP:  69; 6HR MAX TEMP:  76;

FREMONT        FAIR      59  57  92 N8        30.11R
6HR MIN TEMP:  58; 6HR MAX TEMP:  64;

HOLLAND        PTSUNNY   62  57  83 N7        30.09R
6HR MIN TEMP:  62; 6HR MAX TEMP:  71;

GRAND RAPIDS   PTSUNNY   64  57  78 N12       30.09R
6HR MIN TEMP:  63; 6HR MAX TEMP:  71;

IONIA          CLOUDY    62  55  79 NE10G16   30.07F
KALAMAZOO      CLOUDY    64  59  83 N10       30.06R
6HR MIN TEMP:  64; 6HR MAX TEMP:  70; 6HR PCP:  0.02;

LUDINGTON      PTSUNNY   59  57  92 N5        30.15R
6HR MIN TEMP:  57; 6HR MAX TEMP:  62;

MARSHALL       CLOUDY    63  58  84 N8        30.04F
MOUNT PLEASANT MOSUNNY   63  56  79 NW6       30.09R
6HR MIN TEMP:  61; 6HR MAX TEMP:  65;

MUSKEGON       PTSUNNY   61  55  81 N10G22    30.12R
6HR MIN TEMP:  61; 6HR MAX TEMP:  69;

SOUTH HAVEN    PTSUNNY   61  59  93 NE9       30.07S
$$
MIZ016>042-231300-
NORTHERN LOWER MICHIGAN

CITY           SKY/WX    TMP DP  RH WIND       PRES   REMARKS
ALPENA         PTSUNNY   60  56  86 NW9       30.09R
6HR MIN TEMP:  57; 6HR MAX TEMP:  61;

BEAVER ISLAND  CLOUDY    57  54  89 N10G18    30.15R
6HR MIN TEMP:  56; 6HR MAX TEMP:  60;

BELLAIRE       CLOUDY    60  54  80 NW5       30.12R
6HR MIN TEMP:  59; 6HR MAX TEMP:  63;

CADILLAC       CLOUDY    58  55  90 NW8       30.12R
CHARLEVOIX     CLOUDY    60  55  82 N8        30.16R
6HR MIN TEMP:  59; 6HR MAX TEMP:  62;

FRANKFORT      CLOUDY    59  54  82 N7        30.14R
GAYLORD        CLOUDY    57  53  86 N6        30.12R
6HR MIN TEMP:  56; 6HR MAX TEMP:  60;

GRAYLING       CLOUDY    59  56  91 NW7       30.12R
HARBOR SPRINGS SUNNY     60  55  82 N3        30.12R
HOUGHTON LAKE  CLOUDY    59  54  83 N8        30.12R
6HR MIN TEMP:  58; 6HR MAX TEMP:  61;

MANISTEE       PTSUNNY   57  54  88 N6        30.15R
OSCODA         PTSUNNY   63  54  74 N13       30.06R
PELLSTON       CLOUDY    59  55  87 NW7       30.12R
6HR MIN TEMP:  56; 6HR MAX TEMP:  61;

ROGERS CITY    SUNNY     60  57  90 NW7       30.10R
TRAVERSE CITY  CLOUDY    60  54  80 N9        30.12R
6HR MIN TEMP:  60; 6HR MAX TEMP:  63;

$$
MIZ007>008-015-231300-
EASTERN UPPER MICHIGAN

CITY           SKY/WX    TMP DP  RH WIND       PRES   REMARKS
KINROSS        CLOUDY    55  54  94 NW8       30.11R
6HR MIN TEMP:  54; 6HR MAX TEMP:  55;

MACKINAC ISLAN CLOUDY    56  54  94 NW7       30.10R
6HR MIN TEMP:  55; 6HR MAX TEMP:  58;

NEWBERRY       CLOUDY    51  48  89 N8        30.14R FOG
6HR MIN TEMP:  50; 6HR MAX TEMP:  55;

S. S. MARIE    CLOUDY    58  51  78 N8        30.10R
6HR MIN TEMP:  54; 6HR MAX TEMP:  58;

MUNISING         N/A     54  49  83 N13       30.17R
6HR MIN TEMP:  52; 6HR MAX TEMP:  57;

$$
MIZ004>006-011>014-085-231300-
CENTRAL UPPER MICHIGAN

CITY           SKY/WX    TMP DP  RH WIND       PRES   REMARKS
MANISTIQUE     PTSUNNY   52  50  93 NW6       30.15R
6HR MIN TEMP:  49; 6HR MAX TEMP:  55;

ESCANABA       SUNNY     55  50  82 N5        30.17R
6HR MIN TEMP:  54; 6HR MAX TEMP:  59;

MENOMINEE      SUNNY     57  52  82 N7        30.17R
6HR MIN TEMP:  55; 6HR MAX TEMP:  61;

SAWYER-GWINN   SUNNY     55  50  82 N9        30.18S
$$
MIZ001>003-009>011-084-231300-
WESTERN UPPER MICHIGAN

CITY           SKY/WX    TMP DP  RH WIND       PRES   REMARKS
IRON MOUNTAIN  SUNNY     56  52  86 NW8       30.19R
6HR MIN TEMP:  52; 6HR MAX TEMP:  57;

HOUGHTON       CLOUDY    58  50  75 CALM      30.21R
6HR MIN TEMP:  53; 6HR MAX TEMP:  58;

COPPER HARBOR    N/A     57  52  83 N3        30.20R
6HR MIN TEMP:  52; 6HR MAX TEMP:  57;

$$

ABBREVIATIONS USED IN REMARKS
   TC - TEMPERATURE IN CELSIUS
  WCI - WIND CHILL INDEX
   HX - HEAT INDEX
  VSB - VISIBILITY




USA.gov is the U.S. government's official web portal to all federal, state and local government web resources and services.